Tracking 30258 objects as of 19-Feb-2025
HD Live streaming from Space Station
objects crossing your sky now

STARLINK-5189

Track STARLINK-5189 now!
10-day predictions
STARLINK-5189 is classified as:


NORAD ID: 54052
Int'l Code: 2022-136B
Perigee: 546.0 km
Apogee: 547.8 km
Inclination: 53.2 °
Period: 95.4 minutes
Semi major axis: 6917 km
RCS: Unknown
Launch date: October 20, 2022
Source: United States (US)
Launch site: AIR FORCE EASTERN TEST RANGE (AFETR)
Your satellite tracking list
Your tracking list is empty




NASA's NSSDC Master Catalog

Two Line Element Set (TLE):
1 54052U 22136B   25049.80146432  .00000774  00000-0  66685-4 0  9991
2 54052  53.2168 227.2771 0001322  92.5003 267.6141 15.08844018129455
Source of the keplerian elements: AFSPC